This demonstration page uses our WeatherBlox Daily Observations layout. Learn more.

Left ArrowRight Arrow

Hourly Observations for September 20, 2022

Temp ( °F °C ) Dew Point ( °F °C ) Humidity (%) Winds ( mph kmh ) Pressure ( in mb ) Visibility ( mi km ) Precip ( " mm )
12:53 am 00:53 Clear 77 25 58 14.4 52 52 S 7 11 29.80 1009 10 16 0.00 0.00
1:53 am 01:53 Clear 76 24.4 58 14.4 54 54 SSW 7 11 29.80 1009 10 16 0.00 0.00
2:53 am 02:53 Clear 73 22.8 59 15 61 61 S 6 9 29.80 1009 10 16 0.00 0.00
3:53 am 03:53 Clear 71 21.7 59 15 66 66 S 9 15 29.80 1009 10 16 0.00 0.00
4:53 am 04:53 Clear 71 21.7 59 15 66 66 S 7 11 29.80 1009 10 16 0.00 0.00
5:53 am 05:53 Clear 70 21.1 59 15 68 68 undefined N/A 29.81 1009 10 16 0.00 0.00
6:53 am 06:53 Clear 69 20.6 59 15 70 70 S 9 15 29.82 1010 10 16 0.00 0.00
7:53 am 07:53 Sunny 70 21.1 59 15 68 68 S 9 15 29.83 1010 10 16 0.00 0.00
8:53 am 08:53 Sunny 74 23.3 60 15.6 62 62 SSW 12 19 29.83 1010 10 16 0.00 0.00
9:53 am 09:53 Sunny 79 26.1 61 16.1 54 54 undefined N/A 29.83 1010 10 16 0.00 0.00
10:53 am 10:53 Sunny 85 29.4 62 16.7 46 46 SW 9 15 29.83 1010 10 16 0.00 0.00
11:53 am 11:53 Sunny 89 31.7 63 17.2 42 42 SW 8 13 29.83 1010 10 16 0.00 0.00
12:53 pm 12:53 Sunny 93 33.9 64 17.8 39 39 VRB 6 9 29.82 1010 10 16 0.00 0.00
1:53 pm 13:53 Sunny 94 34.4 61 16.1 34 34 SW 10 17 29.81 1009 10 16 0.00 0.00
2:53 pm 14:53 Sunny 95 35 62 16.7 34 34 SSW 9 15 29.79 1009 10 16 0.00 0.00
3:53 pm 15:53 Sunny 97 36.1 60 15.6 30 30 SSW 14 22 29.78 1009 10 16 0.00 0.00
4:53 pm 16:53 Sunny 99 37.2 60 15.6 28 28 WSW 10 17 29.78 1009 10 16 0.00 0.00
5:53 pm 17:53 Sunny 97 36.1 59 15 29 29 WSW 7 11 29.79 1009 10 16 0.00 0.00
6:53 pm 18:53 Sunny 89 31.7 66 18.9 47 47 NNW 5 7 29.80 1009 10 16 0.00 0.00
7:53 pm 19:53 Hazy 84 28.9 67 19.4 57 57 N 6 9 29.81 1009 6 10 0.00 0.00
8:53 pm 20:53 Clear 79 26.1 61 16.1 54 54 NNE 9 15 29.83 1010 10 16 0.00 0.00
9:53 pm 21:53 Cloudy 82 27.8 56 13.3 41 41 Calm 29.89 1012 10 16 0.00 0.00
10:53 pm 22:53 Clear 76 24.4 57 13.9 52 52 S 3 6 29.93 1014 10 16 0.00 0.00
11:53 pm 23:53 Clear 71 21.7 59 15 66 66 Calm 29.94 1014 10 16 0.00 0.00

Powered by AerisWeather